Wind_Speed
37 35 34 33 31 30 29 27 26 25 24 23 22 21 20 20 20 20 20 20 20 20 21 22 23 24 25 26 28 29 30 32 33 34 35 36 37 38 39 40 41 42 42
39 37 36 34 33 32 30 29 27 26 25 25 24 23 22 22 22 22 21 22 22 22 23 24 24 26 27 28 29 31 32 33 34 36 37 38 39 40 41 42 43 43 44
40 39 37 35 34 32 31 30 29 28 27 26 25 24 24 24 23 23 23 23 23 24 25 26 26 27 29 30 31 32 33 35 36 37 39 40 41 41 42 43 44 44 45
42 40 38 37 35 33 32 31 30 29 28 27 26 25 25 25 25 25 25 25 25 26 26 27 28 29 30 31 33 34 35 36 38 39 40 41 42 43 44 45 46 46 47
43 42 40 38 36 34 33 32 31 30 29 28 27 27 27 27 27 26 27 27 27 27 28 29 30 31 32 33 34 35 37 38 39 40 41 42 43 44 46 47 47 48 48
45 43 41 39 37 36 34 33 32 31 30 30 29 28 28 29 28 28 29 29 29 29 30 30 31 32 34 35 36 37 38 39 41 41 42 43 45 46 47 48 48 49 49
46 44 42 40 38 37 35 34 33 32 31 31 31 30 30 30 30 30 30 30 30 31 32 32 33 34 35 36 37 38 39 41 42 42 43 45 46 47 48 49 49 50 50
48 46 44 42 40 38 36 36 35 33 33 32 32 32 32 31 31 31 32 32 32 33 33 34 34 35 36 37 38 39 40 42 43 43 44 46 47 48 49 50 50 51 51
48 47 46 44 42 40 38 37 36 35 34 34 33 33 33 33 33 33 33 33 34 34 34 35 35 36 37 38 39 40 41 42 43 45 46 47 48 49 50 51 51 51 52
49 48 46 45 43 42 40 39 38 37 36 35 34 34 34 34 34 34 34 34 34 35 35 36 37 37 38 39 40 41 42 43 44 45 46 48 49 50 51 51 52 52 53
49 48 47 45 44 43 42 41 40 39 38 37 36 35 35 35 35 35 35 35 35 36 36 37 37 37 39 40 41 42 43 44 45 46 47 48 50 50 52 52 52 53 54
49 48 47 46 44 44 43 42 41 40 39 38 37 36 36 36 35 36 36 36 36 36 36 37 38 38 39 41 42 43 44 45 46 47 48 49 50 51 52 52 53 54 54
48 48 47 46 45 44 44 43 42 41 39 38 38 37 37 36 36 36 36 36 36 36 37 38 39 39 40 42 43 44 44 46 46 47 48 50 51 51 52 53 53 54 56
48 49 48 47 46 45 44 43 42 41 40 39 38 37 37 36 36 36 36 36 36 36 37 38 40 41 41 42 43 44 45 46 47 48 49 50 51 52 52 53 54 56 57
49 48 48 48 46 45 44 43 42 41 40 40 38 37 36 36 36 37 37 36 36 36 37 39 40 41 42 43 44 45 45 46 47 48 49 50 51 52 53 54 55 57 58
48 48 48 47 46 45 43 42 42 41 40 39 38 37 36 36 36 36 36 36 36 37 38 39 40 41 42 43 44 45 45 46 47 48 50 51 52 53 54 55 56 58 59
48 48 47 46 45 44 43 42 41 40 39 39 38 37 37 37 36 36 36 36 37 38 38 39 40 41 43 44 44 45 45 46 47 49 50 51 52 53 54 55 57 59 61
47 47 47 46 45 44 43 41 40 39 39 39 39 38 38 37 37 36 36 37 38 38 39 39 40 41 43 44 44 44 45 46 48 49 50 51 52 53 55 57 59 60 61
48 47 47 46 46 44 43 42 41 40 40 39 39 39 38 38 37 37 37 38 38 39 39 40 41 42 42 43 44 45 46 47 48 49 51 52 53 54 56 58 59 61 62
50 47 46 46 45 45 43 42 42 41 40 40 40 39 39 39 38 38 38 38 39 40 40 40 41 42 42 43 44 45 46 47 48 49 51 52 53 55 57 59 60 61 62
51 48 46 46 45 44 43 43 42 41 40 40 40 39 39 39 39 40 39 39 40 40 39 40 40 41 42 43 44 45 46 47 48 49 51 52 54 56 58 59 61 62 62
52 50 47 46 45 44 43 42 42 41 41 41 41 40 40 39 39 40 39 39 39 38 39 39 40 41 42 43 44 45 46 47 48 50 51 53 55 57 58 60 61 62 61
52 51 49 47 46 45 44 43 43 42 41 41 41 41 40 39 39 39 38 38 37 37 38 39 41 41 42 42 44 45 46 47 49 50 52 54 56 57 59 61 61 60 59
51 51 49 48 47 46 44 43 43 42 42 41 41 40 38 38 38 37 37 37 37 37 38 40 40 41 41 42 43 44 45 47 49 51 52 53 55 58 60 60 59 58 57
50 49 48 47 47 46 45 44 42 42 41 41 40 39 38 37 37 37 37 37 37 37 38 39 39 39 40 41 42 43 45 47 49 51 52 54 55 58 59 58 57 57 56
49 47 46 46 45 45 45 45 43 42 41 40 40 39 38 38 37 37 36 36 36 36 37 38 37 38 39 40 42 43 45 47 49 50 52 54 56 57 56 55 55 55 54
Wind_Direction
229 231 231 233 235 237 239 241 244 247 249 251 255 258 261 265 268 271 276 279 283 288 293 298 301 305 308 310 313 315 317 318 319 320 321 322 322 323 323 322 321 321 321
229 231 232 233 235 237 240 242 244 248 250 251 254 257 260 264 268 271 275 278 282 287 291 295 299 302 306 309 312 314 315 316 318 319 320 321 321 322 322 321 321 320 320
229 231 232 233 235 237 240 242 244 247 250 252 255 258 260 264 268 271 274 278 281 286 290 294 297 301 304 307 310 312 314 315 317 318 319 320 320 320 321 320 320 319 319
229 230 232 233 235 237 240 242 244 247 249 252 255 258 261 264 268 271 274 277 281 285 290 293 296 299 303 306 308 311 312 314 315 316 317 318 319 319 320 319 319 319 318
229 230 232 233 235 237 240 242 244 246 248 251 255 259 261 264 267 271 274 278 281 284 289 292 296 299 302 304 307 309 311 312 314 315 316 317 318 319 319 319 319 318 318
229 230 231 233 235 237 239 241 244 246 249 252 256 259 262 264 267 271 274 277 280 284 288 291 295 298 301 303 305 308 309 311 313 314 315 317 317 318 318 318 318 317 317
229 230 231 233 235 237 239 242 244 247 250 253 257 260 262 265 268 271 274 277 280 284 288 291 294 297 300 302 304 307 308 310 312 313 315 316 316 317 317 317 317 317 317
229 230 231 233 234 237 240 242 244 247 251 254 257 260 263 265 268 271 274 277 280 284 287 290 293 296 299 301 304 306 307 309 311 312 314 315 316 316 317 317 316 316 316
229 230 231 233 235 237 240 243 245 248 251 255 258 261 263 266 269 272 274 277 280 283 286 289 292 296 298 300 303 305 307 309 310 312 313 314 315 316 316 316 316 315 316
229 230 232 233 235 237 241 243 246 249 252 255 258 261 264 266 269 272 274 277 280 283 286 289 292 295 297 299 302 304 306 308 310 311 312 313 315 315 316 316 315 315 315
229 230 231 233 236 238 241 244 246 249 252 255 258 261 264 266 269 271 275 277 280 283 286 289 292 294 296 299 301 303 305 307 309 311 312 313 315 315 316 315 315 315 315
229 230 231 234 236 239 241 244 247 250 252 254 257 261 264 266 269 272 275 278 280 283 286 289 291 294 296 298 301 303 305 307 309 310 312 313 314 315 314 314 315 315 315
229 231 232 234 237 239 242 245 248 250 251 254 257 261 264 266 270 272 275 278 281 283 286 289 292 294 296 298 301 303 305 307 308 310 311 313 314 314 314 314 315 315 315
229 231 233 235 237 239 242 245 247 249 251 254 257 261 264 267 270 273 275 278 280 283 287 290 292 294 296 299 300 302 304 306 308 310 312 313 314 314 314 315 315 315 316
229 231 232 234 237 239 242 244 245 248 250 254 257 260 264 267 270 273 275 278 281 284 287 290 292 294 296 298 300 303 305 307 309 311 311 312 313 314 314 314 315 316 316
229 230 232 234 236 238 241 244 245 248 251 253 256 260 264 267 270 272 275 277 281 285 287 290 292 295 297 299 301 303 305 307 309 311 311 312 313 314 314 315 315 316 316
228 230 232 234 236 238 241 243 245 248 250 253 256 260 263 267 270 273 275 278 282 286 288 290 293 295 297 299 301 303 305 307 309 310 311 312 313 314 314 315 316 316 316
228 229 232 234 236 238 241 242 244 247 250 253 256 260 263 266 269 273 276 280 283 286 289 291 294 296 298 299 301 303 305 307 309 310 311 312 313 314 315 316 316 316 316
228 229 231 234 236 238 240 242 244 247 250 252 256 259 263 266 269 272 276 280 283 286 289 292 294 296 298 299 301 304 306 307 309 310 311 313 314 315 316 316 316 317 317
228 229 231 233 235 237 239 242 244 247 250 253 256 259 262 266 269 273 276 280 283 286 289 292 294 296 298 300 302 304 306 308 309 310 312 313 314 315 316 316 317 317 318
228 229 231 233 235 237 240 243 245 248 251 254 257 260 263 266 270 273 277 281 284 286 289 292 295 297 298 300 302 304 306 308 309 311 312 313 314 315 316 317 318 318 318
229 231 232 234 236 239 241 243 246 250 252 255 258 260 263 267 270 274 277 281 284 287 290 293 295 297 299 301 303 305 307 308 309 311 312 313 315 316 317 318 319 319 319
231 233 234 235 237 240 242 245 247 250 253 256 258 261 263 266 270 273 278 281 284 287 291 293 296 298 300 301 303 305 307 309 310 312 313 315 316 317 318 319 320 320 321
232 235 237 239 239 240 242 244 247 251 254 257 259 261 264 267 271 274 277 281 284 287 291 293 296 298 299 301 303 306 308 310 311 313 314 316 317 318 319 320 321 321 322
232 235 237 238 240 242 243 245 248 251 254 257 260 262 265 269 272 275 278 281 284 287 290 294 296 298 300 302 305 307 309 311 312 314 315 316 317 319 320 321 321 322 322
233 235 236 238 241 243 245 247 249 251 253 256 259 262 265 269 272 275 279 282 285 288 291 294 296 299 301 303 305 308 310 312 313 315 316 317 318 320 321 322 322 322 323
Height
5823 5826 5829 5832 5834 5836 5838 5840 5841 5843 5844 5844 5845 5845 5845 5845 5845 5844 5843 5842 5841 5840 5838 5836 5834 5832 5829 5826 5823 5820 5816 5812 5808 5804 5799 5795 5790 5785 5779 5774 5769 5763 5758
5816 5820 5823 5826 5829 5831 5833 5835 5837 5838 5839 5840 5841 5841 5841 5841 5840 5840 5839 5838 5837 5836 5834 5832 5830 5827 5824 5821 5818 5815 5811 5807 5803 5798 5794 5789 5784 5778 5773 5768 5762 5757 5751
5810 5813 5817 5820 5823 5825 5827 5830 5831 5833 5834 5835 5836 5836 5836 5836 5836 5835 5834 5833 5832 5831 5829 5827 5825 5822 5820 5816 5813 5809 5805 5801 5797 5792 5788 5782 5777 5772 5767 5761 5755 5749 5744
5803 5807 5810 5814 5817 5819 5822 5824 5826 5828 5829 5830 5831 5831 5831 5831 5831 5830 5830 5829 5827 5826 5824 5823 5820 5817 5814 5811 5808 5804 5800 5795 5791 5786 5781 5776 5771 5765 5760 5754 5748 5742 5736
5795 5800 5804 5807 5811 5813 5816 5818 5820 5822 5823 5825 5825 5826 5826 5826 5826 5825 5824 5823 5822 5821 5819 5817 5815 5812 5809 5806 5802 5798 5794 5789 5784 5780 5775 5769 5764 5758 5752 5746 5740 5734 5728
5788 5793 5797 5801 5804 5807 5810 5812 5815 5816 5818 5819 5820 5820 5821 5821 5820 5820 5819 5818 5817 5815 5814 5812 5809 5806 5803 5800 5796 5792 5787 5783 5778 5773 5768 5762 5757 5751 5745 5739 5732 5726 5719
5780 5785 5790 5794 5797 5801 5804 5806 5808 5810 5812 5813 5814 5814 5815 5815 5814 5814 5813 5813 5811 5810 5808 5806 5803 5800 5797 5793 5790 5785 5781 5776 5771 5766 5761 5755 5749 5743 5737 5731 5724 5717 5711
5772 5778 5782 5787 5790 5794 5797 5800 5802 5804 5805 5807 5808 5808 5809 5809 5808 5808 5808 5807 5805 5804 5802 5799 5797 5794 5790 5787 5783 5779 5774 5769 5764 5759 5753 5747 5742 5735 5729 5722 5716 5709 5702
5764 5770 5775 5779 5783 5787 5790 5793 5795 5797 5799 5800 5801 5802 5802 5803 5802 5802 5801 5800 5799 5797 5795 5793 5790 5787 5784 5780 5776 5772 5767 5762 5757 5751 5746 5740 5734 5727 5721 5714 5707 5700 5693
5756 5761 5767 5771 5776 5779 5783 5786 5788 5790 5792 5793 5794 5795 5796 5796 5796 5796 5795 5794 5792 5790 5788 5786 5783 5780 5777 5773 5769 5765 5760 5755 5749 5744 5738 5732 5726 5719 5712 5705 5698 5691 5683
5747 5753 5758 5763 5768 5772 5775 5778 5781 5783 5785 5786 5787 5788 5788 5789 5789 5789 5788 5787 5785 5784 5781 5779 5776 5773 5770 5766 5762 5757 5752 5747 5742 5736 5730 5724 5717 5710 5703 5696 5689 5681 5674
5739 5745 5750 5755 5759 5764 5767 5770 5773 5775 5777 5779 5780 5781 5782 5782 5782 5782 5781 5780 5778 5776 5774 5771 5769 5766 5762 5758 5754 5749 5745 5739 5734 5728 5722 5715 5709 5702 5694 5687 5679 5672 5664
5731 5736 5742 5747 5751 5755 5759 5762 5765 5768 5770 5772 5773 5774 5775 5775 5775 5774 5774 5773 5771 5769 5767 5764 5761 5758 5754 5750 5746 5742 5737 5731 5726 5720 5713 5707 5700 5692 5685 5678 5670 5662 5654
5722 5728 5733 5738 5742 5747 5750 5754 5757 5760 5762 5764 5765 5766 5767 5767 5767 5767 5767 5765 5764 5762 5759 5757 5753 5750 5746 5742 5738 5733 5728 5723 5717 5711 5705 5698 5691 5683 5676 5668 5660 5652 5644
5713 5718 5724 5729 5734 5738 5742 5746 5749 5752 5754 5756 5758 5759 5760 5760 5760 5760 5759 5758 5757 5755 5752 5749 5746 5742 5739 5735 5730 5725 5720 5715 5709 5702 5696 5689 5682 5674 5667 5659 5650 5642 5633
5704 5710 5715 5720 5725 5729 5733 5737 5741 5744 5746 5748 5750 5751 5752 5753 5753 5752 5751 5750 5749 5747 5745 5742 5738 5734 5730 5726 5721 5717 5711 5706 5700 5694 5687 5680 5673 5665 5657 5649 5640 5631 5622
5695 5701 5707 5711 5716 5721 5725 5729 5733 5736 5738 5740 5742 5744 5745 5745 5745 5744 5744 5742 5741 5739 5737 5734 5730 5726 5722 5718 5713 5708 5703 5697 5691 5685 5678 5671 5663 5656 5647 5639 5630 5621 5611
5687 5693 5698 5703 5708 5713 5717 5721 5724 5728 5730 5732 5734 5736 5737 5737 5737 5737 5736 5734 5733 5730 5728 5726 5722 5718 5714 5709 5704 5699 5694 5688 5682 5676 5669 5662 5654 5646 5637 5629 5619 5610 5600
5678 5684 5689 5695 5700 5704 5709 5713 5716 5719 5722 5724 5726 5727 5728 5729 5729 5729 5728 5726 5724 5722 5720 5717 5714 5710 5705 5701 5696 5691 5685 5680 5673 5666 5659 5652 5644 5636 5627 5618 5608 5599 5588
5670 5676 5681 5686 5691 5696 5700 5704 5708 5711 5714 5716 5718 5719 5720 5721 5721 5720 5719 5718 5716 5714 5711 5709 5705 5701 5697 5692 5688 5683 5677 5670 5664 5657 5649 5642 5634 5626 5617 5608 5598 5588 5577
5661 5667 5672 5677 5682 5687 5692 5696 5700 5703 5706 5708 5710 5711 5712 5713 5713 5712 5711 5710 5708 5706 5703 5700 5697 5693 5689 5684 5679 5674 5668 5662 5655 5648 5640 5633 5625 5616 5607 5597 5587 5576 5565
5652 5658 5663 5669 5674 5679 5684 5688 5692 5695 5697 5699 5701 5703 5704 5705 5705 5704 5703 5701 5700 5697 5695 5692 5688 5685 5680 5676 5671 5665 5659 5654 5648 5641 5632 5623 5614 5605 5596 5586 5575 5564 5553
5643 5649 5655 5660 5666 5671 5675 5679 5683 5686 5689 5691 5693 5694 5695 5696 5696 5696 5695 5693 5691 5689 5686 5684 5680 5676 5672 5667 5662 5657 5651 5644 5637 5630 5622 5613 5604 5594 5584 5574 5564 5553 5542
5634 5640 5646 5652 5657 5662 5666 5670 5674 5677 5680 5682 5684 5686 5687 5688 5687 5687 5686 5685 5683 5681 5678 5675 5672 5668 5663 5658 5653 5648 5642 5635 5628 5620 5612 5604 5594 5584 5573 5563 5552 5542 5532
5626 5632 5638 5643 5648 5653 5658 5662 5665 5668 5671 5674 5676 5677 5679 5679 5679 5678 5677 5676 5674 5672 5669 5666 5663 5659 5655 5650 5645 5640 5633 5627 5620 5611 5603 5594 5585 5575 5564 5553 5542 5532 5522
5617 5623 5629 5634 5639 5645 5649 5653 5656 5659 5662 5665 5667 5669 5670 5670 5670 5669 5669 5668 5666 5664 5661 5658 5655 5651 5647 5642 5637 5631 5625 5618 5610 5603 5594 5585 5575 5566 5557 5545 5533 5523 5513